Weather in Sinegorskiy

Russia / Rostov Oblast     48°00′42″N   40°49′55″E
temp.,
°C
wind,
m/s
gust,
m/s
humid.,
%
clouds,
%
prec.,
mm/h
press.,
hPa
HPBL,
m
19 january, wed
wed1900:00−4sw259553 0.0 101170
03:00−5wsw279180 0.0 1014157
06:00−9sw239749 0.0 101455
09:00−8ssw259626 0.0 1016105
12:00−4sw468298 0.0 1016808
15:00−3w358180 0.1 1017608
18:00−8wnw229358 0.0 101814
21:00−9wnw229677 0.0 101843
20 january, thu
thu2000:00−9nw119768 0.0 101920
03:00−9nw239778 0.1 101983
06:00−10nw129798 0.1 102074
09:00−10w129668 0.1 102073
12:00−8w2286100 0.0 1020364
15:00−6wsw2384100 0.1 1020477
18:00−10ssw11945 0.0 102012
21:00−11s22965 0.0 101921
21 january, fri
fri2100:00−9sse3695100 0.0 1019119
03:00−6sse4894100 0.1 1017188
06:00−5sse51196100 0.3 1015312
09:00−3sse71696100 0.9 1013621
12:00+1ssw71698100 1.3 1011764
15:00+1ssw71299100 1.4 1010584
18:00+1sw61298100 0.1 1011493
21:000w4796100 0.4 1013362
22 january, sat
sat2200:00−3w2493100 0.0 1014111
03:00−3ssw3695100 0.3 1014226
06:00−3ssw3697100 0.1 1014223
09:00−4ssw3697100 0.1 1015181
12:00−1ssw458871 0.0 1016493
15:00−1s3689100 0.0 1015324
18:00−4sse3695100 0.0 101796
21:00−3s2496100 0.0 101892
23 january, sun
sun2300:00−4s009770 0.0 101810
03:00−5ne2298100 0.0 101834
06:00−4ne3895100 0.0 1018237
09:00−4ne61189100 0.0 1018400
12:00−3nne71395100 0.2 1017518
15:00−2nne81396100 2.1 1016595
18:00−2ne71297100 2.9 1016490
21:00−2ne51197100 4.6 1015391